Regional Weather Roundup
Issued by NWS

Home | Current Version | Previous Version | Text Only | Print | Product List | Glossary On
Versions: 1 2 3 4 5 6 7 8 9 10 11 12 13 14 15 16 17 18 19 20 21 22 23 24 25 26 27 28 29 30 31 32 33 34 35 36 37 38 39 40 41 42 43 44 45 46 47 48 49 50
000
ASUS44 KBMX 211310
RWRAL

ALABAMA REGIONAL WEATHER ROUNDUP
NATIONAL WEATHER SERVICE BIRMINGHAM AL
700 AM CST SUN DEC 21 2014

NOTE: "FAIR" INDICATES FEW OR NO CLOUDS BELOW 12,000 FEET
WITH NO SIGNIFICANT WEATHER AND/OR OBSTRUCTIONS TO VISIBILITY.

THE REMARK "TC" DENOTES TEMPERATURE IN DEGREES CELSIUS.

ALZ001>011-014-016>018-020-211400-
NORTH ALABAMA

CITY           SKY/WX    TMP DP  RH WIND       PRES   REMARKS
MUSCLE SHOALS  CLEAR     28  24  85 CALM      30.23S
HUNTSVILLE     PTCLDY    32  27  81 CALM      30.21R
DECATUR        CLEAR     29  26  89 CALM      30.22R
HALEYVILLE     FAIR      27  27 100 CALM      30.22R FOG
GADSDEN        MOCLDY    34  30  86 CALM      30.21R
$$

ALZ012-013-022-023-030>036-040>044-211400-
WEST CENTRAL ALABAMA

CITY           SKY/WX    TMP DP  RH WIND       PRES   REMARKS
TUSCALOOSA     CLOUDY    41  38  89 CALM      30.19R
$$

ALZ015-024>027-033>036-040>044-211400-
CENTRAL ALABAMA

CITY           SKY/WX    TMP DP  RH WIND       PRES   REMARKS
BIRMINGHAM     CLOUDY    43  40  89 NE5       30.19S
MONTGOMERY     CLOUDY    53  48  83 E12       30.16S
SHELBY CO ARPT CLOUDY    46  43  89 CALM      30.18R
MAXWELL AFB    CLOUDY    51  48  90 NE5       30.16R
GREENVILLE     CLOUDY    51  49  92 NE6       30.13R FOG
$$

ALZ019-021-028-029-037-038-045>048-211400-
EAST CENTRAL ALABAMA

CITY           SKY/WX    TMP DP  RH WIND       PRES   REMARKS
ANNISTON       CLOUDY    44  41  89 NE3       30.19R FOG
ALEXANDER CITY CLOUDY    50  46  84 NE5       30.16S HAZE
AUBURN         CLOUDY    46  43  87 NE6       30.18S
$$

ALZ051>064-211400-
SOUTHWEST ALABAMA

CITY           SKY/WX    TMP DP  RH WIND       PRES   REMARKS
MOBILE         MOCLDY    49  47  93 NE6       30.11S
BROOKLEY FIELD MOCLDY    52  49  89 N7        30.13S
EVERGREEN      CLOUDY    53  50  89 NE3       30.12F FOG
$$

ALZ049-050-065>069-211400-
SOUTHEAST ALABAMA

CITY           SKY/WX    TMP DP  RH WIND       PRES   REMARKS
DOTHAN         CLOUDY    53  50  89 NE8       30.15S
OZARK          CLOUDY    53  50  88 NE8       30.11F
TROY           CLOUDY    52  50  93 E7        30.14S
EUFAULA        CLOUDY    54  50  86 N3        30.14R
$$



USA.gov is the U.S. government's official web portal to all federal, state and local government web resources and services.